Flag for Bosnia-Herzegovina Weather past 2 weeks in Mostar, Bosnia-Herzegovina

50 °F

Passing clouds.

Feels Like: 43 °F
Forecast: 32 / 43 °F
Wind: 21 mph from North

Location: Mostar

Current Time: Nov 26, 2015 at 7:43:45 PM

Latest Report: Nov 26, 2015 at 7:00 PM

Visibility: N/A

Pressure: 29.50 "Hg

Humidity: 47%

Dew point: 30 °F

Location of MostarLocation

Historic Weather in Mostar — Graph


Mostar temperature yesterday

Maximum temperature yesterday: 52 °F (at 12:00 PM)
Minimum temperature yesterday: 36 °F (at 7:00 AM)
Average temperature yesterday: 45 °F

Past Weeks' High & Low Weather Summary

High75 °F (Nov 12, 2:00 PM)100% (Nov 12, 4:00 AM)30.33 "Hg (Nov 12, 4:00 AM)
Low34 °F (Nov 17, 6:00 AM)39% (Nov 12, 2:00 PM)29.15 "Hg (Nov 21, 7:00 PM)
Average50 °F81%29.99 "Hg
* Reported Nov 11 6:00 PM — Nov 26 6:00 PM, Mostar, Weather by CustomWeather, © 2015

Note: Actual official high and low records may vary slightly from our data, if they occured in-between our weather recording intervals... More about our weather records


Mostar weather history for previous 24 hours

Time TempWeatherWind HumidityBarometerVisibility
6:00 PM
Thu, Nov 26
50 °FPassing clouds.7 mph50%29.47 "HgN/A
5:00 PM48 °FPartly cloudy.5 mph54%29.47 "HgN/A
4:00 PM48 °FLight rain. More clouds than sun.3 mph62%29.47 "HgN/A
3:00 PM48 °FLight rain. More clouds than sun.2 mph66%29.47 "HgN/A
2:00 PM50 °FLight rain. More clouds than sun.5 mph50%29.47 "HgN/A
1:00 PM50 °FBroken clouds.3 mph50%29.47 "HgN/A
12:00 PM50 °FBroken clouds.5 mph54%29.50 "HgN/A
11:30 AM50 °FBroken clouds.3 mph50%29.50 "HgN/A
11:00 AM50 °FBroken clouds.3 mph54%29.50 "HgN/A
10:30 AM46 °FBroken clouds.5 mph62%29.53 "HgN/A
10:00 AM46 °FBroken clouds.2 mph62%29.53 "HgN/A
9:30 AM46 °FScattered clouds.3 mph66%29.53 "HgN/A
9:00 AM45 °FPassing clouds.5 mph71%29.53 "HgN/A
8:30 AM43 °FPassing clouds.2 mph81%29.50 "HgN/A
8:00 AM39 °FPassing clouds.3 mph87%29.50 "HgN/A
7:30 AM39 °FPassing clouds.3 mph87%29.50 "HgN/A
7:00 AM41 °FScattered clouds.1 mph81%29.50 "HgN/A
6:30 AM41 °FPassing clouds.2 mph81%29.50 "HgN/A
6:00 AM41 °FPassing clouds.2 mph81%29.50 "HgN/A
5:00 AM43 °FPassing clouds.2 mph81%29.47 "HgN/A
4:00 AM45 °FPartly cloudy.5 mph76%29.47 "HgN/A
3:00 AM45 °FPartly cloudy.5 mph71%29.47 "HgN/A
2:00 AM46 °FPartly cloudy.2 mph66%29.50 "HgN/A
1:00 AM45 °FPartly cloudy.3 mph76%29.50 "HgN/A
12:00 AM45 °FPartly cloudy.3 mph76%29.50 "HgN/A
11:00 PM
Wed, Nov 25
45 °FPartly cloudy.1 mph81%29.53 "HgN/A
10:00 PM46 °FPassing clouds.2 mph71%29.53 "HgN/A
9:00 PM45 °FPassing clouds.3 mph81%29.53 "HgN/A
8:00 PM46 °FPassing clouds.3 mph76%29.53 "HgN/A
7:00 PM46 °FPassing clouds.6 mph76%29.56 "HgN/A
Weather by CustomWeather, © 2015

See weather overviewHow to use our weather pages